MDT,Max TemperatureF,Mean TemperatureF,Min TemperatureF,Max Dew PointF,MeanDew PointF,Min DewpointF,Max Humidity, Mean Humidity, Min Humidity, Max Sea Level PressureIn, Mean Sea Level PressureIn, Min Sea Level PressureIn, Max VisibilityMiles, Mean VisibilityMiles, Min VisibilityMiles, Max Wind SpeedMPH, Mean Wind SpeedMPH, Max Gust SpeedMPH,PrecipitationIn, CloudCover, Events, WindDirDegrees
2013-4-1,5,-1,-5,-4,-9,-13,77,67,61,30.47,30.46,30.45,15,12,10,9,6,,0.00,7,Snow,345
2013-4-2,3,-5,-11,-6,-12,-17,77,69,65,30.59,30.56,30.53,15,14,10,8,5,,0.00,6,Snow,328
2013-4-3,3,-6,-16,-6,-14,-24,70,66,61,30.78,30.72,30.67,15,12,5,10,1,,0.00,6,Snow,2
2013-4-4,10,-2,-13,-2,-12,-22,70,63,57,30.70,30.62,30.55,15,13,10,0,0,,0.00,6,Snow,-1
2013-4-5,-5,-10,-14,-11,-16,-20,84,73,59,30.48,30.44,30.40,20,10,5,14,4,,0.00,7,Snow,2
2013-4-6,-4,-11,-18,-9,-18,-26,84,76,65,30.31,30.25,30.20,20,9,6,12,8,,0.00,8,Snow,336
2013-4-7,-9,-16,-20,-18,-20,-26,77,74,65,30.12,30.11,30.09,,,,4,2,,0.00,5,,350
2013-4-8,0,-6,-11,-11,-15,-20,64,60,59,30.05,30.02,29.99,15,15,15,12,6,,0.00,7,,337
2013-4-9,1,-3,-7,-8,-13,-18,66,63,59,29.81,29.62,29.43,15,9,5,12,8,,0.00,8,Snow,344
2013-4-10,10,4,1,1,-4,-6,72,69,61,29.62,29.55,29.46,10,7,2,6,4,,0.00,8,Snow,153
2013-4-11,15,2,-11,5,-6,-18,77,67,62,30.01,29.94,29.86,15,15,15,5,1,,0.00,7,Snow,250
2013-4-12,6,6,5,1,1,1,85,84,79,30.32,30.29,30.25,6,6,6,5,3,,0.00,8,Snow,140
2013-4-13,,,,,,,,,,,,,,,,,,,,,,
2013-4-14,12,6,3,9,4,0,85,85,85,30.67,30.62,30.56,,,,7,5,,0.00,6,,341
2013-4-15,15,7,0,5,-2,-8,78,68,62,30.96,30.94,30.91,15,15,15,12,4,,0.00,4,Snow,338
2013-4-16,17,6,-2,7,-4,-11,78,68,62,30.81,30.75,30.67,15,15,15,12,8,,0.00,2,Snow,329
2013-4-17,17,8,0,5,-2,-8,72,65,58,30.61,30.59,30.58,,,,12,9,23,0.00,4,,346
2013-4-18,12,3,-2,1,-5,-9,78,67,62,30.65,30.63,30.60,15,11,10,12,10,21,0.00,6,Snow,339
2013-4-19,32,13,-4,14,3,-11,72,62,47,30.57,30.55,30.52,,,,6,4,,0.00,4,,176
2013-4-20,37,20,5,34,22,0,93,84,74,30.40,30.33,30.26,,,,6,2,,0.00,6,,243
2013-4-21,24,19,15,23,17,12,93,83,74,30.32,30.32,30.32,,,,7,4,,0.00,4,,142
2013-4-22,42,26,12,39,26,9,100,86,70,30.33,30.27,30.25,,,,9,4,,0.00,5,,167
2013-4-23,46,38,32,39,31,25,100,69,53,30.20,30.13,30.03,,,,14,7,,0.00,4,,236
2013-4-24,37,34,28,37,32,21,100,95,74,29.83,29.76,29.72,,,,13,7,,0.00,6,,274
2013-4-25,15,12,10,12,10,9,93,88,73,30.20,30.17,30.11,15,9,6,14,11,,0.00,7,Snow,349
2013-4-26,23,11,1,16,7,-2,86,77,67,29.98,29.87,29.77,20,20,20,7,4,,0.00,6,,158
2013-4-27,,,,,,,,,,,,,,,,,,,,,,
2013-4-28,12,0,-9,9,-4,-13,85,79,66,30.22,30.19,30.16,,,,7,4,,0.00,6,,172
2013-4-29,24,12,0,18,9,-6,93,81,68,30.23,30.22,30.20,,,,7,0,,0.00,4,,70
2013-4-30,14,6,1,10,3,-2,92,85,78,30.32,30.31,30.30,12,10,6,10,7,,0.00,6,Snow,332